Time,TemperatureF,DewpointF,PressureIn,WindDirection,WindDirectionDegrees,WindSpeedMPH,WindSpeedGustMPH,Humidity,HourlyPrecipIn,Conditions,Clouds,dailyrainin,SoftwareType,DateUTC
2013-01-05 00:03:00,41.7,41.2,30.18,South,172,1.0,2.0,98,0.00,,,0.00,WeatherCatV1.10B1784,2013-01-05 08:03:00,
2013-01-05 00:08:00,41.7,41.2,30.18,SE,138,4.0,5.0,98,0.00,,,0.00,WeatherCatV1.10B1784,2013-01-05 08:08:00,
2013-01-05 00:13:00,41.7,41.2,30.18,SW,216,3.0,3.0,98,0.00,,,0.00,WeatherCatV1.10B1784,2013-01-05 08:13:00,
2013-01-05 00:18:00,41.7,41.2,30.18,ENE,74,7.0,7.0,98,0.00,,,0.00,WeatherCatV1.10B1784,2013-01-05 08:18:00,
2013-01-05 00:23:00,41.7,41.2,30.17,SE,146,2.0,4.0,98,0.00,,,0.00,WeatherCatV1.10B1784,2013-01-05 08:23:00,
2013-01-05 00:28:00,41.7,41.2,30.17,ESE,117,0.0,4.0,98,0.00,,,0.00,WeatherCatV1.10B1784,2013-01-05 08:28:00,
2013-01-05 00:33:00,41.7,41.2,30.17,ESE,102,3.0,8.0,98,0.00,,,0.00,WeatherCatV1.10B1784,2013-01-05 08:33:00,
2013-01-05 00:38:00,41.8,41.3,30.17,SSE,155,1.0,4.0,98,0.00,,,0.00,WeatherCatV1.10B1784,2013-01-05 08:38:00,
2013-01-05 00:43:00,41.7,41.2,30.17,SSW,197,0.0,5.0,98,0.00,,,0.00,WeatherCatV1.10B1784,2013-01-05 08:43:00,
2013-01-05 00:48:00,41.8,41.3,30.17,ESE,114,1.0,3.0,98,0.00,,,0.00,WeatherCatV1.10B1784,2013-01-05 08:48:00,
2013-01-05 00:53:00,41.8,41.3,30.17,SE,127,5.0,5.0,98,0.00,,,0.00,WeatherCatV1.10B1784,2013-01-05 08:53:00,
2013-01-05 00:58:00,41.8,41.3,30.17,SSE,153,0.0,3.0,98,0.00,,,0.00,WeatherCatV1.10B1784,2013-01-05 08:58:00,
2013-01-05 01:03:00,41.8,41.3,30.17,SSE,155,2.0,6.0,98,0.00,,,0.00,WeatherCatV1.10B1784,2013-01-05 09:03:00,
2013-01-05 01:08:00,41.8,41.3,30.17,SW,217,5.0,6.0,98,0.00,,,0.00,WeatherCatV1.10B1784,2013-01-05 09:08:00,
2013-01-05 01:13:00,41.8,41.3,30.17,SE,129,2.0,3.0,98,0.00,,,0.00,WeatherCatV1.10B1784,2013-01-05 09:13:00,
2013-01-05 01:18:00,41.9,41.4,30.17,WSW,242,1.0,4.0,98,0.00,,,0.00,WeatherCatV1.10B1784,2013-01-05 09:18:00,
2013-01-05 01:23:00,41.9,41.4,30.17,East,89,1.0,7.0,98,0.00,,,0.00,WeatherCatV1.10B1784,2013-01-05 09:23:00,
2013-01-05 01:28:00,41.9,41.1,30.17,SSW,197,4.0,6.0,97,0.00,,,0.00,WeatherCatV1.10B1784,2013-01-05 09:28:00,
2013-01-05 01:33:00,42.0,41.2,30.18,SSW,207,3.0,3.0,97,0.00,,,0.00,WeatherCatV1.10B1784,2013-01-05 09:33:00,
2013-01-05 01:38:00,42.1,41.3,30.18,SE,124,8.0,8.0,97,0.00,,,0.00,WeatherCatV1.10B1784,2013-01-05 09:38:00,
2013-01-05 01:43:00,42.1,41.3,30.18,SSE,150,3.0,7.0,97,0.00,,,0.00,WeatherCatV1.10B1784,2013-01-05 09:43:00,
2013-01-05 01:48:00,42.3,41.5,30.18,SSE,157,1.0,2.0,97,0.00,,,0.00,WeatherCatV1.10B1784,2013-01-05 09:48:00,
2013-01-05 01:53:00,42.4,41.6,30.18,SE,127,1.0,2.0,97,0.00,,,0.00,WeatherCatV1.10B1784,2013-01-05 09:53:00,
2013-01-05 01:58:00,42.4,41.6,30.17,SE,127,0.0,3.0,97,0.00,,,0.00,WeatherCatV1.10B1784,2013-01-05 09:58:00,
2013-01-05 02:03:00,42.4,41.3,30.18,South,169,3.0,6.0,96,0.00,,,0.00,WeatherCatV1.10B1784,2013-01-05 10:03:00,
2013-01-05 02:08:00,42.5,41.4,30.18,SSE,160,2.0,4.0,96,0.00,,,0.00,WeatherCatV1.10B1784,2013-01-05 10:08:00,
2013-01-05 02:13:00,42.5,41.4,30.18,WSW,245,1.0,5.0,96,0.00,,,0.00,WeatherCatV1.10B1784,2013-01-05 10:13:00,
2013-01-05 02:18:00,42.5,41.4,30.18,ESE,120,2.0,6.0,96,0.00,,,0.00,WeatherCatV1.10B1784,2013-01-05 10:18:00,
2013-01-05 02:23:00,42.6,41.5,30.18,South,189,3.0,8.0,96,0.00,,,0.01,WeatherCatV1.10B1784,2013-01-05 10:23:00,
2013-01-05 02:28:00,42.6,41.5,30.19,South,169,0.0,3.0,96,0.00,,,0.01,WeatherCatV1.10B1784,2013-01-05 10:28:00,
2013-01-05 02:33:00,42.6,41.3,30.19,ESE,114,0.0,8.0,95,0.00,,,0.01,WeatherCatV1.10B1784,2013-01-05 10:33:00,
2013-01-05 02:38:00,42.6,41.3,30.19,SW,221,0.0,3.0,95,0.00,,,0.01,WeatherCatV1.10B1784,2013-01-05 10:38:00,
2013-01-05 02:43:00,42.6,41.3,30.19,South,186,3.0,4.0,95,0.00,,,0.02,WeatherCatV1.10B1784,2013-01-05 10:43:00,
2013-01-05 02:48:00,42.5,41.2,30.19,SSW,207,1.0,5.0,95,0.00,,,0.02,WeatherCatV1.10B1784,2013-01-05 10:48:00,
2013-01-05 02:53:00,42.4,41.1,30.19,South,188,1.0,2.0,95,0.00,,,0.02,WeatherCatV1.10B1784,2013-01-05 10:53:00,
2013-01-05 02:58:00,42.4,41.1,30.19,SW,228,0.0,2.0,95,0.00,,,0.02,WeatherCatV1.10B1784,2013-01-05 10:58:00,
2013-01-05 03:03:00,42.3,41.0,30.19,SW,226,0.0,2.0,95,0.00,,,0.02,WeatherCatV1.10B1784,2013-01-05 11:03:00,
2013-01-05 03:08:00,42.3,41.0,30.19,ESE,103,0.0,2.0,95,0.00,,,0.02,WeatherCatV1.10B1784,2013-01-05 11:08:00,
2013-01-05 03:13:00,42.2,40.9,30.18,SSE,154,2.0,8.0,95,0.05,,,0.03,WeatherCatV1.10B1784,2013-01-05 11:13:00,
2013-01-05 03:18:00,42.3,41.0,30.18,ESE,113,0.0,1.0,95,0.05,,,0.03,WeatherCatV1.10B1784,2013-01-05 11:18:00,
2013-01-05 03:23:00,42.3,41.0,30.18,South,170,2.0,3.0,95,0.04,,,0.03,WeatherCatV1.10B1784,2013-01-05 11:23:00,
2013-01-05 03:28:00,42.2,40.9,30.18,ESE,113,0.0,2.0,95,0.03,,,0.03,WeatherCatV1.10B1784,2013-01-05 11:28:00,
2013-01-05 03:33:00,42.1,40.8,30.19,SW,224,0.0,1.0,95,0.00,,,0.03,WeatherCatV1.10B1784,2013-01-05 11:33:00,
2013-01-05 03:38:00,42.1,40.8,30.18,ENE,77,4.0,5.0,95,0.00,,,0.03,WeatherCatV1.10B1784,2013-01-05 11:38:00,
2013-01-05 03:43:00,42.0,40.7,30.18,ESE,119,5.0,7.0,95,0.00,,,0.03,WeatherCatV1.10B1784,2013-01-05 11:43:00,
2013-01-05 03:48:00,42.0,40.7,30.18,SE,144,6.0,6.0,95,0.00,,,0.03,WeatherCatV1.10B1784,2013-01-05 11:48:00,
2013-01-05 03:53:00,42.0,40.7,30.17,SE,138,2.0,10.0,95,0.00,,,0.03,WeatherCatV1.10B1784,2013-01-05 11:53:00,
2013-01-05 03:58:00,42.1,40.8,30.18,East,86,2.0,6.0,95,0.00,,,0.03,WeatherCatV1.10B1784,2013-01-05 11:58:00,
2013-01-05 04:03:00,42.1,40.5,30.18,SW,219,2.0,4.0,94,0.00,,,0.03,WeatherCatV1.10B1784,2013-01-05 12:03:00,
2013-01-05 04:08:00,42.0,40.4,30.18,SE,143,1.0,4.0,94,0.00,,,0.03,WeatherCatV1.10B1784,2013-01-05 12:08:00,
2013-01-05 04:13:00,42.0,40.7,30.17,ESE,108,3.0,8.0,95,0.00,,,0.03,WeatherCatV1.10B1784,2013-01-05 12:13:00,
2013-01-05 04:18:00,41.9,40.6,30.17,SE,134,5.0,8.0,95,0.00,,,0.03,WeatherCatV1.10B1784,2013-01-05 12:18:00,
2013-01-05 04:23:00,42.0,40.7,30.17,East,101,3.0,6.0,95,0.00,,,0.03,WeatherCatV1.10B1784,2013-01-05 12:23:00,
2013-01-05 04:28:00,42.0,40.7,30.17,East,86,3.0,6.0,95,0.00,,,0.03,WeatherCatV1.10B1784,2013-01-05 12:28:00,
2013-01-05 04:33:00,42.0,40.7,30.17,SSW,200,1.0,4.0,95,0.00,,,0.03,WeatherCatV1.10B1784,2013-01-05 12:33:00,
2013-01-05 04:38:00,41.9,40.6,30.17,ESE,114,4.0,9.0,95,0.00,,,0.03,WeatherCatV1.10B1784,2013-01-05 12:38:00,
2013-01-05 04:43:00,41.9,40.6,30.17,SSE,154,2.0,10.0,95,0.00,,,0.03,WeatherCatV1.10B1784,2013-01-05 12:43:00,
2013-01-05 04:48:00,41.8,40.5,30.17,ESE,106,9.0,9.0,95,0.00,,,0.03,WeatherCatV1.10B1784,2013-01-05 12:48:00,
2013-01-05 04:53:00,41.7,40.4,30.17,ESE,102,4.0,8.0,95,0.00,,,0.03,WeatherCatV1.10B1784,2013-01-05 12:53:00,
2013-01-05 04:58:00,41.7,40.4,30.17,ESE,117,3.0,7.0,95,0.00,,,0.03,WeatherCatV1.10B1784,2013-01-05 12:58:00,
2013-01-05 05:03:00,41.7,40.6,30.17,SE,127,5.0,5.0,96,0.00,,,0.03,WeatherCatV1.10B1784,2013-01-05 13:03:00,
2013-01-05 05:08:00,41.6,40.5,30.17,SE,144,3.0,6.0,96,0.00,,,0.03,WeatherCatV1.10B1784,2013-01-05 13:08:00,
2013-01-05 05:13:00,41.7,40.6,30.17,ESE,109,3.0,5.0,96,0.00,,,0.03,WeatherCatV1.10B1784,2013-01-05 13:13:00,
2013-01-05 05:18:00,41.6,40.5,30.17,ESE,116,6.0,7.0,96,0.00,,,0.03,WeatherCatV1.10B1784,2013-01-05 13:18:00,
2013-01-05 05:23:00,41.7,40.6,30.17,SSE,159,1.0,6.0,96,0.00,,,0.03,WeatherCatV1.10B1784,2013-01-05 13:23:00,
2013-01-05 05:28:00,41.7,40.6,30.17,SSE,158,3.0,8.0,96,0.00,,,0.03,WeatherCatV1.10B1784,2013-01-05 13:28:00,
2013-01-05 05:33:00,41.6,40.5,30.17,SE,130,7.0,7.0,96,0.00,,,0.03,WeatherCatV1.10B1784,2013-01-05 13:33:00,
2013-01-05 05:38:00,41.6,40.5,30.17,ESE,113,2.0,8.0,96,0.00,,,0.03,WeatherCatV1.10B1784,2013-01-05 13:38:00,
2013-01-05 05:43:00,41.5,40.4,30.16,East,96,6.0,7.0,96,0.00,,,0.04,WeatherCatV1.10B1784,2013-01-05 13:43:00,
2013-01-05 05:48:00,41.5,40.4,30.16,ESE,120,4.0,6.0,96,0.00,,,0.04,WeatherCatV1.10B1784,2013-01-05 13:48:00,
2013-01-05 05:53:00,41.5,40.4,30.16,ESE,106,0.0,9.0,96,0.00,,,0.04,WeatherCatV1.10B1784,2013-01-05 13:53:00,
2013-01-05 05:58:00,41.5,40.4,30.16,ESE,123,3.0,9.0,96,0.00,,,0.04,WeatherCatV1.10B1784,2013-01-05 13:58:00,
2013-01-05 06:03:00,41.4,40.3,30.16,ENE,68,2.0,7.0,96,0.00,,,0.04,WeatherCatV1.10B1784,2013-01-05 14:03:00,
2013-01-05 06:08:00,41.4,40.3,30.16,ESE,110,3.0,6.0,96,0.00,,,0.04,WeatherCatV1.10B1784,2013-01-05 14:08:00,
2013-01-05 06:13:00,41.4,40.3,30.16,SSE,160,3.0,7.0,96,0.00,,,0.04,WeatherCatV1.10B1784,2013-01-05 14:13:00,
2013-01-05 06:18:00,41.4,40.3,30.16,SSE,151,1.0,9.0,96,0.00,,,0.04,WeatherCatV1.10B1784,2013-01-05 14:18:00,
2013-01-05 06:23:00,41.3,40.2,30.16,SE,126,5.0,6.0,96,0.00,,,0.04,WeatherCatV1.10B1784,2013-01-05 14:23:00,
2013-01-05 06:28:00,41.3,40.2,30.15,ESE,120,7.0,7.0,96,0.00,,,0.04,WeatherCatV1.10B1784,2013-01-05 14:28:00,
2013-01-05 06:33:00,41.3,40.2,30.15,SE,137,1.0,9.0,96,0.00,,,0.04,WeatherCatV1.10B1784,2013-01-05 14:33:00,
2013-01-05 06:38:00,41.3,40.2,30.15,East,92,4.0,6.0,96,0.00,,,0.05,WeatherCatV1.10B1784,2013-01-05 14:38:00,
2013-01-05 06:43:00,41.3,40.2,30.15,East,92,3.0,5.0,96,0.00,,,0.05,WeatherCatV1.10B1784,2013-01-05 14:43:00,
2013-01-05 06:48:00,41.3,40.2,30.15,SSE,165,4.0,8.0,96,0.00,,,0.05,WeatherCatV1.10B1784,2013-01-05 14:48:00,
2013-01-05 06:53:00,41.4,40.3,30.15,ENE,74,8.0,9.0,96,0.00,,,0.05,WeatherCatV1.10B1784,2013-01-05 14:53:00,
2013-01-05 06:58:00,41.4,40.3,30.15,SE,129,3.0,4.0,96,0.00,,,0.05,WeatherCatV1.10B1784,2013-01-05 14:58:00,
2013-01-05 07:03:00,41.4,40.3,30.16,SSE,159,2.0,4.0,96,0.00,,,0.05,WeatherCatV1.10B1784,2013-01-05 15:03:00,
2013-01-05 07:08:00,41.4,40.3,30.16,SE,129,4.0,6.0,96,0.00,,,0.05,WeatherCatV1.10B1784,2013-01-05 15:08:00,
2013-01-05 07:13:00,41.4,40.3,30.16,SSE,154,0.0,5.0,96,0.00,,,0.05,WeatherCatV1.10B1784,2013-01-05 15:13:00,
2013-01-05 07:18:00,41.4,40.3,30.16,ESE,110,0.0,5.0,96,0.00,,,0.05,WeatherCatV1.10B1784,2013-01-05 15:18:00,
2013-01-05 07:23:00,41.4,40.3,30.16,SSE,149,0.0,3.0,96,0.00,,,0.05,WeatherCatV1.10B1784,2013-01-05 15:23:00,
2013-01-05 07:28:00,41.3,40.2,30.16,ESE,113,3.0,5.0,96,0.00,,,0.05,WeatherCatV1.10B1784,2013-01-05 15:28:00,
2013-01-05 07:33:00,41.3,40.2,30.16,ESE,121,2.0,6.0,96,0.00,,,0.05,WeatherCatV1.10B1784,2013-01-05 15:33:00,
2013-01-05 07:38:00,41.3,40.2,30.16,ESE,112,5.0,5.0,96,0.00,,,0.05,WeatherCatV1.10B1784,2013-01-05 15:38:00,
2013-01-05 07:43:00,41.3,40.2,30.16,SSE,167,1.0,4.0,96,0.00,,,0.05,WeatherCatV1.10B1784,2013-01-05 15:43:00,
2013-01-05 07:48:00,41.3,40.2,30.16,ESE,110,2.0,6.0,96,0.00,,,0.05,WeatherCatV1.10B1784,2013-01-05 15:48:00,
2013-01-05 07:53:00,41.3,40.2,30.16,ESE,116,1.0,6.0,96,0.00,,,0.05,WeatherCatV1.10B1784,2013-01-05 15:53:00,
2013-01-05 07:58:00,41.3,40.2,30.16,SE,139,3.0,9.0,96,0.00,,,0.05,WeatherCatV1.10B1784,2013-01-05 15:58:00,
2013-01-05 08:03:00,41.2,40.1,30.16,East,99,2.0,9.0,96,0.00,,,0.05,WeatherCatV1.10B1784,2013-01-05 16:03:00,
2013-01-05 08:08:00,41.2,40.1,30.16,ESE,111,7.0,13.0,96,0.00,,,0.05,WeatherCatV1.10B1784,2013-01-05 16:08:00,
2013-01-05 08:13:00,41.2,40.1,30.15,SE,142,6.0,10.0,96,0.00,,,0.05,WeatherCatV1.10B1784,2013-01-05 16:13:00,
2013-01-05 08:18:00,41.2,40.1,30.15,ESE,111,9.0,12.0,96,0.00,,,0.05,WeatherCatV1.10B1784,2013-01-05 16:18:00,
2013-01-05 08:23:00,41.2,40.1,30.15,ESE,122,10.0,12.0,96,0.00,,,0.05,WeatherCatV1.10B1784,2013-01-05 16:23:00,
2013-01-05 08:28:00,41.3,40.2,30.15,ESE,102,3.0,7.0,96,0.00,,,0.05,WeatherCatV1.10B1784,2013-01-05 16:28:00,
2013-01-05 08:33:00,41.5,40.4,30.15,ESE,120,4.0,9.0,96,0.00,,,0.05,WeatherCatV1.10B1784,2013-01-05 16:33:00,
2013-01-05 08:38:00,41.5,40.4,30.15,SE,124,2.0,3.0,96,0.00,,,0.05,WeatherCatV1.10B1784,2013-01-05 16:38:00,
2013-01-05 08:43:00,41.6,40.8,30.14,SE,124,3.0,6.0,97,0.00,,,0.05,WeatherCatV1.10B1784,2013-01-05 16:43:00,
2013-01-05 08:48:00,41.7,40.9,30.14,ESE,108,5.0,10.0,97,0.00,,,0.05,WeatherCatV1.10B1784,2013-01-05 16:48:00,
2013-01-05 08:53:00,41.7,40.9,30.14,SE,134,3.0,9.0,97,0.00,,,0.05,WeatherCatV1.10B1784,2013-01-05 16:53:00,
2013-01-05 08:58:00,41.7,40.6,30.15,East,94,4.0,11.0,96,0.00,,,0.05,WeatherCatV1.10B1784,2013-01-05 16:58:00,
2013-01-05 09:03:00,41.7,40.6,30.15,SE,131,2.0,8.0,96,0.00,,,0.05,WeatherCatV1.10B1784,2013-01-05 17:03:00,
2013-01-05 09:08:00,41.7,40.6,30.15,ESE,102,9.0,13.0,96,0.00,,,0.05,WeatherCatV1.10B1784,2013-01-05 17:08:00,
2013-01-05 09:13:00,41.7,40.6,30.15,SSE,162,3.0,8.0,96,0.00,,,0.05,WeatherCatV1.10B1784,2013-01-05 17:13:00,
2013-01-05 09:18:00,41.7,40.6,30.15,ESE,110,10.0,10.0,96,0.00,,,0.05,WeatherCatV1.10B1784,2013-01-05 17:18:00,
2013-01-05 09:23:00,41.7,40.6,30.15,SSE,156,1.0,8.0,96,0.00,,,0.05,WeatherCatV1.10B1784,2013-01-05 17:23:00,
2013-01-05 09:28:00,41.7,40.6,30.16,East,94,1.0,14.0,96,0.00,,,0.05,WeatherCatV1.10B1784,2013-01-05 17:28:00,
2013-01-05 09:33:00,41.7,40.9,30.16,SSE,156,3.0,10.0,97,0.00,,,0.05,WeatherCatV1.10B1784,2013-01-05 17:33:00,
2013-01-05 09:38:00,41.7,40.9,30.16,ESE,118,6.0,16.0,97,0.00,,,0.05,WeatherCatV1.10B1784,2013-01-05 17:38:00,
2013-01-05 09:43:00,41.8,41.0,30.16,ESE,121,4.0,7.0,97,0.00,,,0.05,WeatherCatV1.10B1784,2013-01-05 17:43:00,
2013-01-05 09:48:00,41.8,41.0,30.17,SE,132,2.0,6.0,97,0.00,,,0.05,WeatherCatV1.10B1784,2013-01-05 17:48:00,
2013-01-05 09:53:00,41.9,41.1,30.16,South,184,5.0,6.0,97,0.00,,,0.05,WeatherCatV1.10B1784,2013-01-05 17:53:00,
2013-01-05 09:58:00,41.8,41.0,30.16,ESE,105,2.0,10.0,97,0.00,,,0.05,WeatherCatV1.10B1784,2013-01-05 17:58:00,
2013-01-05 10:03:00,41.9,41.1,30.16,WNW,285,1.0,11.0,97,0.00,,,0.05,WeatherCatV1.10B1784,2013-01-05 18:03:00,
2013-01-05 10:08:00,41.9,41.1,30.16,SE,131,3.0,7.0,97,0.00,,,0.05,WeatherCatV1.10B1784,2013-01-05 18:08:00,
2013-01-05 10:13:00,41.9,41.1,30.16,SE,127,4.0,10.0,97,0.00,,,0.05,WeatherCatV1.10B1784,2013-01-05 18:13:00,
2013-01-05 10:18:00,42.0,41.2,30.16,ESE,108,6.0,11.0,97,0.00,,,0.05,WeatherCatV1.10B1784,2013-01-05 18:18:00,
2013-01-05 10:23:00,42.0,41.2,30.17,ESE,113,5.0,10.0,97,0.00,,,0.05,WeatherCatV1.10B1784,2013-01-05 18:23:00,
2013-01-05 10:28:00,42.1,41.3,30.17,ESE,107,6.0,9.0,97,0.00,,,0.05,WeatherCatV1.10B1784,2013-01-05 18:28:00,
2013-01-05 10:33:00,42.1,41.3,30.17,ESE,120,4.0,8.0,97,0.00,,,0.05,WeatherCatV1.10B1784,2013-01-05 18:33:00,
2013-01-05 10:38:00,42.2,41.1,30.16,ESE,118,7.0,12.0,96,0.00,,,0.05,WeatherCatV1.10B1784,2013-01-05 18:38:00,
2013-01-05 10:43:00,42.3,41.2,30.16,SE,138,4.0,12.0,96,0.00,,,0.05,WeatherCatV1.10B1784,2013-01-05 18:43:00,
2013-01-05 10:48:00,42.3,41.2,30.16,ESE,113,11.0,12.0,96,0.00,,,0.05,WeatherCatV1.10B1784,2013-01-05 18:48:00,
2013-01-05 10:53:00,42.3,41.2,30.17,SSE,148,4.0,7.0,96,0.00,,,0.05,WeatherCatV1.10B1784,2013-01-05 18:53:00,
2013-01-05 10:58:00,42.3,41.0,30.16,ESE,121,14.0,16.0,95,0.00,,,0.05,WeatherCatV1.10B1784,2013-01-05 18:58:00,
2013-01-05 11:03:00,42.3,41.0,30.16,ESE,113,12.0,14.0,95,0.00,,,0.05,WeatherCatV1.10B1784,2013-01-05 19:03:00,
2013-01-05 11:08:00,42.4,41.1,30.16,SE,141,6.0,8.0,95,0.00,,,0.05,WeatherCatV1.10B1784,2013-01-05 19:08:00,
2013-01-05 11:13:00,42.4,41.1,30.16,SE,127,6.0,13.0,95,0.00,,,0.05,WeatherCatV1.10B1784,2013-01-05 19:13:00,
2013-01-05 11:18:00,42.4,41.1,30.16,SSW,198,2.0,5.0,95,0.00,,,0.05,WeatherCatV1.10B1784,2013-01-05 19:18:00,
2013-01-05 11:23:00,42.4,41.1,30.15,SE,124,4.0,10.0,95,0.00,,,0.05,WeatherCatV1.10B1784,2013-01-05 19:23:00,
2013-01-05 11:28:00,42.3,41.0,30.15,SSE,155,6.0,12.0,95,0.00,,,0.05,WeatherCatV1.10B1784,2013-01-05 19:28:00,
2013-01-05 11:33:00,42.3,41.0,30.15,ESE,113,6.0,10.0,95,0.00,,,0.05,WeatherCatV1.10B1784,2013-01-05 19:33:00,
2013-01-05 11:38:00,42.3,41.0,30.14,SSE,152,6.0,10.0,95,0.00,,,0.05,WeatherCatV1.10B1784,2013-01-05 19:38:00,
2013-01-05 11:43:00,42.3,41.0,30.14,SW,219,4.0,13.0,95,0.00,,,0.05,WeatherCatV1.10B1784,2013-01-05 19:43:00,
2013-01-05 11:48:00,42.3,41.0,30.14,SSE,153,4.0,7.0,95,0.00,,,0.05,WeatherCatV1.10B1784,2013-01-05 19:48:00,
2013-01-05 11:53:00,42.3,41.0,30.14,SE,143,1.0,8.0,95,0.00,,,0.05,WeatherCatV1.10B1784,2013-01-05 19:53:00,
2013-01-05 11:58:00,42.3,41.0,30.14,ESE,114,0.0,7.0,95,0.00,,,0.05,WeatherCatV1.10B1784,2013-01-05 19:58:00,
2013-01-05 12:03:00,42.4,41.1,30.14,SSW,210,1.0,3.0,95,0.00,,,0.05,WeatherCatV1.10B1784,2013-01-05 20:03:00,
2013-01-05 12:08:00,42.3,41.0,30.13,East,92,5.0,6.0,95,0.00,,,0.05,WeatherCatV1.10B1784,2013-01-05 20:08:00,
2013-01-05 12:13:00,42.3,41.0,30.13,SE,134,3.0,10.0,95,0.00,,,0.05,WeatherCatV1.10B1784,2013-01-05 20:13:00,
2013-01-05 12:18:00,42.4,40.8,30.13,ESE,111,5.0,8.0,94,0.00,,,0.05,WeatherCatV1.10B1784,2013-01-05 20:18:00,
2013-01-05 12:23:00,42.4,40.8,30.12,ESE,113,9.0,10.0,94,0.00,,,0.05,WeatherCatV1.10B1784,2013-01-05 20:23:00,
2013-01-05 12:28:00,42.5,40.9,30.12,ESE,102,3.0,8.0,94,0.00,,,0.05,WeatherCatV1.10B1784,2013-01-05 20:28:00,
2013-01-05 12:33:00,42.5,40.9,30.12,SE,139,1.0,9.0,94,0.00,,,0.05,WeatherCatV1.10B1784,2013-01-05 20:33:00,
2013-01-05 12:38:00,42.5,40.9,30.11,ESE,108,8.0,9.0,94,0.00,,,0.05,WeatherCatV1.10B1784,2013-01-05 20:38:00,
2013-01-05 12:43:00,42.7,41.1,30.11,ESE,120,4.0,11.0,94,0.00,,,0.05,WeatherCatV1.10B1784,2013-01-05 20:43:00,
2013-01-05 12:48:00,42.7,41.1,30.11,ESE,108,5.0,13.0,94,0.00,,,0.05,WeatherCatV1.10B1784,2013-01-05 20:48:00,
2013-01-05 12:53:00,42.8,41.2,30.11,ENE,71,9.0,11.0,94,0.00,,,0.05,WeatherCatV1.10B1784,2013-01-05 20:53:00,
2013-01-05 12:58:00,42.8,40.9,30.11,SE,136,10.0,10.0,93,0.00,,,0.05,WeatherCatV1.10B1784,2013-01-05 20:58:00,
2013-01-05 13:03:00,42.8,40.9,30.11,ESE,113,9.0,15.0,93,0.00,,,0.05,WeatherCatV1.10B1784,2013-01-05 21:03:00,
2013-01-05 13:08:00,42.9,41.0,30.10,ESE,105,10.0,14.0,93,0.00,,,0.05,WeatherCatV1.10B1784,2013-01-05 21:08:00,
2013-01-05 13:13:00,42.9,41.0,30.10,SE,129,12.0,12.0,93,0.00,,,0.05,WeatherCatV1.10B1784,2013-01-05 21:13:00,
2013-01-05 13:18:00,42.8,40.9,30.10,ENE,74,3.0,14.0,93,0.00,,,0.05,WeatherCatV1.10B1784,2013-01-05 21:18:00,
2013-01-05 13:23:00,42.8,40.9,30.10,ESE,118,11.0,13.0,93,0.00,,,0.05,WeatherCatV1.10B1784,2013-01-05 21:23:00,
2013-01-05 13:28:00,42.8,40.9,30.10,SSE,162,3.0,14.0,93,0.00,,,0.05,WeatherCatV1.10B1784,2013-01-05 21:28:00,
2013-01-05 13:33:00,42.9,41.0,30.10,SE,144,7.0,8.0,93,0.00,,,0.05,WeatherCatV1.10B1784,2013-01-05 21:33:00,
2013-01-05 13:38:00,42.9,41.0,30.10,ESE,120,7.0,12.0,93,0.00,,,0.05,WeatherCatV1.10B1784,2013-01-05 21:38:00,
2013-01-05 13:43:00,42.9,41.0,30.10,SE,138,5.0,7.0,93,0.00,,,0.05,WeatherCatV1.10B1784,2013-01-05 21:43:00,
2013-01-05 13:48:00,42.8,40.9,30.10,ESE,113,6.0,12.0,93,0.00,,,0.05,WeatherCatV1.10B1784,2013-01-05 21:48:00,
2013-01-05 13:53:00,42.8,40.9,30.09,SE,124,10.0,16.0,93,0.00,,,0.05,WeatherCatV1.10B1784,2013-01-05 21:53:00,
2013-01-05 13:58:00,42.9,41.0,30.10,ESE,122,5.0,9.0,93,0.00,,,0.05,WeatherCatV1.10B1784,2013-01-05 21:58:00,
2013-01-05 14:03:00,42.9,41.0,30.10,SE,127,3.0,13.0,93,0.00,,,0.05,WeatherCatV1.10B1784,2013-01-05 22:03:00,
2013-01-05 14:08:00,42.9,41.0,30.09,ESE,105,5.0,6.0,93,0.00,,,0.05,WeatherCatV1.10B1784,2013-01-05 22:08:00,
2013-01-05 14:13:00,42.9,41.0,30.09,ESE,110,5.0,9.0,93,0.00,,,0.05,WeatherCatV1.10B1784,2013-01-05 22:13:00,
2013-01-05 14:18:00,42.9,41.0,30.09,ESE,115,9.0,13.0,93,0.00,,,0.05,WeatherCatV1.10B1784,2013-01-05 22:18:00,
2013-01-05 14:23:00,43.0,41.1,30.09,ESE,115,8.0,9.0,93,0.00,,,0.05,WeatherCatV1.10B1784,2013-01-05 22:23:00,
2013-01-05 14:28:00,43.1,41.2,30.08,ESE,107,9.0,11.0,93,0.00,,,0.05,WeatherCatV1.10B1784,2013-01-05 22:28:00,
2013-01-05 14:33:00,43.2,41.3,30.08,ENE,78,5.0,11.0,93,0.00,,,0.05,WeatherCatV1.10B1784,2013-01-05 22:33:00,
2013-01-05 14:38:00,43.2,41.3,30.08,ESE,103,6.0,7.0,93,0.00,,,0.05,WeatherCatV1.10B1784,2013-01-05 22:38:00,
2013-01-05 14:43:00,43.2,41.0,30.08,ESE,120,5.0,12.0,92,0.00,,,0.05,WeatherCatV1.10B1784,2013-01-05 22:43:00,
2013-01-05 14:48:00,43.3,41.1,30.08,ESE,113,7.0,14.0,92,0.00,,,0.05,WeatherCatV1.10B1784,2013-01-05 22:48:00,
2013-01-05 14:53:00,43.3,41.1,30.08,ESE,117,8.0,8.0,92,0.00,,,0.05,WeatherCatV1.10B1784,2013-01-05 22:53:00,
2013-01-05 14:58:00,43.3,41.1,30.07,East,82,4.0,14.0,92,0.00,,,0.05,WeatherCatV1.10B1784,2013-01-05 22:58:00,
2013-01-05 15:03:00,43.3,41.1,30.07,SE,141,7.0,12.0,92,0.00,,,0.05,WeatherCatV1.10B1784,2013-01-05 23:03:00,
2013-01-05 15:08:00,43.2,41.0,30.07,East,98,13.0,17.0,92,0.00,,,0.05,WeatherCatV1.10B1784,2013-01-05 23:08:00,
2013-01-05 15:13:00,43.2,41.0,30.08,SE,143,9.0,13.0,92,0.00,,,0.05,WeatherCatV1.10B1784,2013-01-05 23:13:00,
2013-01-05 15:18:00,43.2,41.0,30.08,East,101,4.0,7.0,92,0.00,,,0.05,WeatherCatV1.10B1784,2013-01-05 23:18:00,
2013-01-05 15:23:00,43.2,41.0,30.07,ESE,115,8.0,12.0,92,0.00,,,0.05,WeatherCatV1.10B1784,2013-01-05 23:23:00,
2013-01-05 15:28:00,43.2,41.0,30.08,SE,133,4.0,13.0,92,0.00,,,0.05,WeatherCatV1.10B1784,2013-01-05 23:28:00,
2013-01-05 15:34:00,43.2,41.0,30.08,SE,127,4.0,7.0,92,0.00,,,0.05,WeatherCatV1.10B1784,2013-01-05 23:34:00,
2013-01-05 15:39:00,43.2,41.0,30.08,ESE,120,6.0,10.0,92,0.00,,,0.05,WeatherCatV1.10B1784,2013-01-05 23:39:00,
2013-01-05 15:44:00,43.2,41.0,30.08,SSE,159,4.0,11.0,92,0.00,,,0.05,WeatherCatV1.10B1784,2013-01-05 23:44:00,
2013-01-05 15:49:00,43.1,40.9,30.08,ESE,119,8.0,8.0,92,0.00,,,0.05,WeatherCatV1.10B1784,2013-01-05 23:49:00,
2013-01-05 15:54:00,43.1,40.9,30.07,ESE,121,10.0,10.0,92,0.00,,,0.05,WeatherCatV1.10B1784,2013-01-05 23:54:00,
2013-01-05 15:59:00,43.1,40.9,30.07,ESE,120,13.0,17.0,92,0.00,,,0.05,WeatherCatV1.10B1784,2013-01-05 23:59:00,
2013-01-05 16:04:00,43.1,40.9,30.07,SE,133,9.0,13.0,92,0.00,,,0.05,WeatherCatV1.10B1784,2013-01-06 00:04:00,
2013-01-05 16:09:00,43.1,40.9,30.07,ESE,119,6.0,13.0,92,0.00,,,0.05,WeatherCatV1.10B1784,2013-01-06 00:09:00,
2013-01-05 16:14:00,43.1,40.9,30.06,East,98,3.0,13.0,92,0.00,,,0.05,WeatherCatV1.10B1784,2013-01-06 00:14:00,
2013-01-05 16:19:00,43.1,40.9,30.06,ESE,107,6.0,17.0,92,0.00,,,0.05,WeatherCatV1.10B1784,2013-01-06 00:19:00,
2013-01-05 16:24:00,43.1,40.9,30.06,SE,139,6.0,13.0,92,0.00,,,0.05,WeatherCatV1.10B1784,2013-01-06 00:24:00,
2013-01-05 16:29:00,43.1,41.2,30.06,ESE,106,7.0,10.0,93,0.00,,,0.05,WeatherCatV1.10B1784,2013-01-06 00:29:00,
2013-01-05 16:34:00,43.1,41.2,30.06,SE,146,6.0,13.0,93,0.00,,,0.05,WeatherCatV1.10B1784,2013-01-06 00:34:00,
2013-01-05 16:39:00,43.0,41.1,30.07,ENE,64,6.0,12.0,93,0.00,,,0.05,WeatherCatV1.10B1784,2013-01-06 00:39:00,
2013-01-05 16:44:00,43.0,41.1,30.06,SE,143,3.0,8.0,93,0.00,,,0.05,WeatherCatV1.10B1784,2013-01-06 00:44:00,
2013-01-05 16:49:00,43.0,41.1,30.06,SE,136,6.0,11.0,93,0.00,,,0.05,WeatherCatV1.10B1784,2013-01-06 00:49:00,
2013-01-05 16:54:00,43.0,41.1,30.07,SE,131,10.0,15.0,93,0.00,,,0.05,WeatherCatV1.10B1784,2013-01-06 00:54:00,
2013-01-05 16:59:00,43.0,41.1,30.06,ESE,106,7.0,12.0,93,0.00,,,0.05,WeatherCatV1.10B1784,2013-01-06 00:59:00,
2013-01-05 17:04:00,43.0,41.1,30.06,East,100,5.0,18.0,93,0.00,,,0.05,WeatherCatV1.10B1784,2013-01-06 01:04:00,
2013-01-05 17:09:00,43.0,40.8,30.06,SSE,152,4.0,11.0,92,0.00,,,0.05,WeatherCatV1.10B1784,2013-01-06 01:09:00,
2013-01-05 17:14:00,43.0,41.1,30.06,SE,144,2.0,10.0,93,0.00,,,0.05,WeatherCatV1.10B1784,2013-01-06 01:14:00,
2013-01-05 17:19:00,43.0,41.1,30.07,SSE,150,3.0,12.0,93,0.00,,,0.05,WeatherCatV1.10B1784,2013-01-06 01:19:00,
2013-01-05 17:24:00,42.9,41.0,30.07,SSE,154,6.0,10.0,93,0.00,,,0.05,WeatherCatV1.10B1784,2013-01-06 01:24:00,
2013-01-05 17:29:00,42.9,41.0,30.07,ENE,77,2.0,5.0,93,0.00,,,0.05,WeatherCatV1.10B1784,2013-01-06 01:29:00,
2013-01-05 17:34:00,42.9,41.0,30.06,ESE,118,1.0,9.0,93,0.00,,,0.05,WeatherCatV1.10B1784,2013-01-06 01:34:00,
2013-01-05 17:39:00,42.8,40.9,30.06,SSE,150,1.0,8.0,93,0.00,,,0.05,WeatherCatV1.10B1784,2013-01-06 01:39:00,
2013-01-05 17:44:00,42.8,40.9,30.06,ESE,117,9.0,9.0,93,0.00,,,0.05,WeatherCatV1.10B1784,2013-01-06 01:44:00,
2013-01-05 17:49:00,42.7,40.8,30.06,ESE,123,2.0,8.0,93,0.00,,,0.05,WeatherCatV1.10B1784,2013-01-06 01:49:00,
2013-01-05 17:54:00,42.7,41.1,30.07,SE,136,1.0,9.0,94,0.00,,,0.05,WeatherCatV1.10B1784,2013-01-06 01:54:00,
2013-01-05 17:59:00,42.6,41.0,30.07,ESE,103,0.0,3.0,94,0.00,,,0.05,WeatherCatV1.10B1784,2013-01-06 01:59:00,
2013-01-05 18:04:00,42.6,41.0,30.07,East,99,1.0,6.0,94,0.00,,,0.05,WeatherCatV1.10B1784,2013-01-06 02:04:00,
2013-01-05 18:09:00,42.6,41.0,30.07,SE,124,3.0,11.0,94,0.00,,,0.05,WeatherCatV1.10B1784,2013-01-06 02:09:00,
2013-01-05 18:14:00,42.6,41.0,30.06,SSE,150,4.0,8.0,94,0.00,,,0.05,WeatherCatV1.10B1784,2013-01-06 02:14:00,
2013-01-05 18:19:00,42.6,41.0,30.06,ESE,123,7.0,11.0,94,0.00,,,0.05,WeatherCatV1.10B1784,2013-01-06 02:19:00,
2013-01-05 18:24:00,42.6,41.0,30.06,East,101,8.0,8.0,94,0.00,,,0.05,WeatherCatV1.10B1784,2013-01-06 02:24:00,
2013-01-05 18:29:00,42.6,41.0,30.06,ESE,118,4.0,12.0,94,0.00,,,0.05,WeatherCatV1.10B1784,2013-01-06 02:29:00,
2013-01-05 18:34:00,42.6,41.0,30.06,SE,143,8.0,13.0,94,0.00,,,0.05,WeatherCatV1.10B1784,2013-01-06 02:34:00,
2013-01-05 18:39:00,42.7,41.1,30.06,SSE,154,5.0,7.0,94,0.00,,,0.05,WeatherCatV1.10B1784,2013-01-06 02:39:00,
2013-01-05 18:44:00,42.7,41.1,30.06,SSE,168,2.0,8.0,94,0.00,,,0.05,WeatherCatV1.10B1784,2013-01-06 02:44:00,
2013-01-05 18:49:00,42.6,41.0,30.05,SE,131,2.0,6.0,94,0.00,,,0.05,WeatherCatV1.10B1784,2013-01-06 02:49:00,
2013-01-05 18:54:00,42.6,41.0,30.06,SE,132,3.0,7.0,94,0.00,,,0.05,WeatherCatV1.10B1784,2013-01-06 02:54:00,
2013-01-05 18:59:00,42.5,40.9,30.06,SSW,200,1.0,3.0,94,0.00,,,0.05,WeatherCatV1.10B1784,2013-01-06 02:59:00,
2013-01-05 19:04:00,42.4,40.8,30.06,East,99,1.0,3.0,94,0.00,,,0.05,WeatherCatV1.10B1784,2013-01-06 03:04:00,
2013-01-05 19:09:00,42.4,40.8,30.06,SW,228,0.0,2.0,94,0.00,,,0.05,WeatherCatV1.10B1784,2013-01-06 03:09:00,
2013-01-05 19:14:00,42.3,40.7,30.06,SSW,211,2.0,5.0,94,0.00,,,0.05,WeatherCatV1.10B1784,2013-01-06 03:14:00,
2013-01-05 19:19:00,42.2,40.6,30.07,SW,217,2.0,3.0,94,0.00,,,0.05,WeatherCatV1.10B1784,2013-01-06 03:19:00,
2013-01-05 19:24:00,42.2,40.6,30.06,SSE,155,2.0,5.0,94,0.00,,,0.05,WeatherCatV1.10B1784,2013-01-06 03:24:00,
2013-01-05 19:29:00,42.1,40.5,30.06,SSE,154,3.0,7.0,94,0.00,,,0.05,WeatherCatV1.10B1784,2013-01-06 03:29:00,
2013-01-05 19:34:00,42.1,40.5,30.06,SSW,200,0.0,1.0,94,0.00,,,0.05,WeatherCatV1.10B1784,2013-01-06 03:34:00,
2013-01-05 19:39:00,41.9,40.3,30.06,SE,131,1.0,2.0,94,0.00,,,0.05,WeatherCatV1.10B1784,2013-01-06 03:39:00,
2013-01-05 19:44:00,41.8,40.2,30.06,SSE,150,2.0,2.0,94,0.00,,,0.05,WeatherCatV1.10B1784,2013-01-06 03:44:00,
2013-01-05 19:49:00,41.7,40.1,30.06,ESE,115,2.0,4.0,94,0.00,,,0.05,WeatherCatV1.10B1784,2013-01-06 03:49:00,
2013-01-05 19:54:00,41.7,40.1,30.06,South,169,2.0,2.0,94,0.00,,,0.05,WeatherCatV1.10B1784,2013-01-06 03:54:00,
2013-01-05 19:59:00,41.6,40.0,30.06,SSE,162,2.0,3.0,94,0.00,,,0.05,WeatherCatV1.10B1784,2013-01-06 03:59:00,
2013-01-05 20:04:00,41.6,40.0,30.06,South,184,5.0,6.0,94,0.00,,,0.05,WeatherCatV1.10B1784,2013-01-06 04:04:00,
2013-01-05 20:09:00,41.7,40.1,30.06,South,179,2.0,5.0,94,0.00,,,0.05,WeatherCatV1.10B1784,2013-01-06 04:09:00,
2013-01-05 20:14:00,41.7,40.1,30.06,SSW,194,7.0,7.0,94,0.00,,,0.05,WeatherCatV1.10B1784,2013-01-06 04:14:00,
2013-01-05 20:19:00,41.8,39.9,30.06,South,190,1.0,4.0,93,0.00,,,0.05,WeatherCatV1.10B1784,2013-01-06 04:19:00,
2013-01-05 20:24:00,41.7,39.8,30.05,SSW,193,2.0,5.0,93,0.00,,,0.05,WeatherCatV1.10B1784,2013-01-06 04:24:00,
2013-01-05 20:29:00,41.6,39.7,30.05,South,172,3.0,4.0,93,0.00,,,0.05,WeatherCatV1.10B1784,2013-01-06 04:29:00,
2013-01-05 20:34:00,41.5,39.6,30.05,South,184,2.0,4.0,93,0.00,,,0.05,WeatherCatV1.10B1784,2013-01-06 04:34:00,
2013-01-05 20:39:00,41.3,39.4,30.05,SSE,150,2.0,4.0,93,0.00,,,0.05,WeatherCatV1.10B1784,2013-01-06 04:39:00,
2013-01-05 20:44:00,41.2,39.3,30.06,WSW,257,1.0,1.0,93,0.00,,,0.05,WeatherCatV1.10B1784,2013-01-06 04:44:00,
2013-01-05 20:49:00,41.1,39.5,30.06,WNW,283,0.0,0.0,94,0.00,,,0.05,WeatherCatV1.10B1784,2013-01-06 04:49:00,
2013-01-05 20:54:00,41.1,39.5,30.06,SW,228,1.0,1.0,94,0.00,,,0.05,WeatherCatV1.10B1784,2013-01-06 04:54:00,
2013-01-05 20:59:00,41.0,39.1,30.05,SW,228,0.0,0.0,93,0.00,,,0.05,WeatherCatV1.10B1784,2013-01-06 04:59:00,
2013-01-05 21:00:00,40.9,39.0,30.05,SSW,207,2.0,2.0,93,0.00,,,0.05,WeatherCatV1.10B1784,2013-01-06 05:00:00,
2013-01-05 21:05:00,40.5,38.6,30.06,South,186,3.0,3.0,93,0.00,,,0.05,WeatherCatV1.10B1784,2013-01-06 05:05:00,
2013-01-05 21:10:00,40.3,38.4,30.05,SSE,152,1.0,1.0,93,0.00,,,0.05,WeatherCatV1.10B1784,2013-01-06 05:10:00,
2013-01-05 21:15:00,40.0,38.1,30.05,SSW,210,0.0,1.0,93,0.00,,,0.05,WeatherCatV1.10B1784,2013-01-06 05:15:00,
2013-01-05 21:20:00,39.7,38.1,30.06,South,170,2.0,3.0,94,0.00,,,0.05,WeatherCatV1.10B1784,2013-01-06 05:20:00,
2013-01-05 21:25:00,39.5,37.9,30.06,SSE,149,1.0,1.0,94,0.00,,,0.05,WeatherCatV1.10B1784,2013-01-06 05:25:00,
2013-01-05 21:30:00,39.3,37.7,30.06,SSW,204,3.0,3.0,94,0.00,,,0.05,WeatherCatV1.10B1784,2013-01-06 05:30:00,
2013-01-05 21:35:00,39.4,37.8,30.06,SW,219,4.0,4.0,94,0.00,,,0.05,WeatherCatV1.10B1784,2013-01-06 05:35:00,
2013-01-05 21:40:00,39.7,38.1,30.06,South,179,2.0,3.0,94,0.00,,,0.05,WeatherCatV1.10B1784,2013-01-06 05:40:00,
2013-01-05 21:45:00,39.9,37.8,30.06,ESE,118,1.0,2.0,92,0.00,,,0.05,WeatherCatV1.10B1784,2013-01-06 05:45:00,
2013-01-05 21:50:00,39.6,37.5,30.06,ENE,70,3.0,3.0,92,0.00,,,0.05,WeatherCatV1.10B1784,2013-01-06 05:50:00,
2013-01-05 21:55:00,39.9,37.8,30.06,ESE,116,1.0,2.0,92,0.00,,,0.05,WeatherCatV1.10B1784,2013-01-06 05:55:00,
2013-01-05 22:00:00,40.0,38.1,30.06,ESE,114,2.0,3.0,93,0.00,,,0.05,WeatherCatV1.10B1784,2013-01-06 06:00:00,
2013-01-05 22:05:00,40.5,38.9,30.06,East,96,2.0,2.0,94,0.00,,,0.05,WeatherCatV1.10B1784,2013-01-06 06:05:00,
2013-01-05 22:10:00,40.3,38.2,30.06,SW,217,4.0,4.0,92,0.00,,,0.05,WeatherCatV1.10B1784,2013-01-06 06:10:00,
2013-01-05 22:15:00,40.0,37.9,30.06,ESE,107,1.0,2.0,92,0.00,,,0.05,WeatherCatV1.10B1784,2013-01-06 06:15:00,
2013-01-05 22:20:00,40.6,38.7,30.07,WSW,239,4.0,5.0,93,0.00,,,0.05,WeatherCatV1.10B1784,2013-01-06 06:20:00,
2013-01-05 22:25:00,40.2,38.1,30.07,WSW,250,1.0,1.0,92,0.00,,,0.05,WeatherCatV1.10B1784,2013-01-06 06:25:00,
2013-01-05 22:30:00,40.2,37.5,30.07,WNW,287,3.0,4.0,90,0.00,,,0.05,WeatherCatV1.10B1784,2013-01-06 06:30:00,
2013-01-05 22:35:00,40.3,36.7,30.06,SSW,194,4.0,4.0,87,0.00,,,0.05,WeatherCatV1.10B1784,2013-01-06 06:35:00,
2013-01-05 22:40:00,40.0,36.7,30.06,SSW,203,3.0,4.0,88,0.00,,,0.05,WeatherCatV1.10B1784,2013-01-06 06:40:00,
2013-01-05 22:45:00,39.8,36.5,30.06,SSE,166,3.0,4.0,88,0.00,,,0.05,WeatherCatV1.10B1784,2013-01-06 06:45:00,
2013-01-05 22:50:00,39.9,36.6,30.06,SSW,200,3.0,4.0,88,0.00,,,0.05,WeatherCatV1.10B1784,2013-01-06 06:50:00,
2013-01-05 22:55:00,39.9,36.3,30.06,SSE,156,2.0,2.0,87,0.00,,,0.05,WeatherCatV1.10B1784,2013-01-06 06:55:00,
2013-01-05 23:00:00,39.7,36.4,30.06,SSE,166,2.0,2.0,88,0.00,,,0.05,WeatherCatV1.10B1784,2013-01-06 07:00:00,
2013-01-05 23:05:00,39.7,36.4,30.06,SSW,199,2.0,3.0,88,0.00,,,0.05,WeatherCatV1.10B1784,2013-01-06 07:05:00,
2013-01-05 23:10:00,40.3,36.7,30.06,SE,146,1.0,2.0,87,0.00,,,0.05,WeatherCatV1.10B1784,2013-01-06 07:10:00,
2013-01-05 23:15:00,40.6,36.5,30.06,SW,228,2.0,3.0,85,0.00,,,0.05,WeatherCatV1.10B1784,2013-01-06 07:15:00,
2013-01-05 23:20:00,40.6,36.2,30.06,SE,136,2.0,3.0,84,0.00,,,0.05,WeatherCatV1.10B1784,2013-01-06 07:20:00,
2013-01-05 23:25:00,40.5,36.4,30.06,SSE,155,3.0,5.0,85,0.00,,,0.05,WeatherCatV1.10B1784,2013-01-06 07:25:00,
2013-01-05 23:30:00,40.4,36.3,30.06,South,176,3.0,7.0,85,0.00,,,0.05,WeatherCatV1.10B1784,2013-01-06 07:30:00,
2013-01-05 23:35:00,41.8,36.1,30.06,South,181,3.0,4.0,80,0.00,,,0.05,WeatherCatV1.10B1784,2013-01-06 07:35:00,
2013-01-05 23:40:00,41.7,36.0,30.06,South,190,4.0,4.0,80,0.00,,,0.05,WeatherCatV1.10B1784,2013-01-06 07:40:00,
2013-01-05 23:45:00,41.8,35.8,30.06,South,188,2.0,3.0,79,0.00,,,0.05,WeatherCatV1.10B1784,2013-01-06 07:45:00,
2013-01-05 23:50:00,42.4,35.7,30.06,SSW,193,3.0,4.0,77,0.00,,,0.05,WeatherCatV1.10B1784,2013-01-06 07:50:00,
2013-01-05 23:55:00,42.8,36.1,30.06,SSW,193,2.0,3.0,77,0.00,,,0.05,WeatherCatV1.10B1784,2013-01-06 07:55:00,